Location: Unspecified
(0.0000°N, 0.0000°E)
Time: 14:57:42
(UTC+00:00)

N. Korean satellite - Pass Details

Date: 23 September 2020
Orbit: 455 x 503 km, 97.2° (Epoch: 19 September)

Event Time Altitude Azimuth Distance (km) Brightness Sun altitude
Rises 04:49:12 0° 23° (NNE) 2,526 10.5 -15.8°
Reaches altitude 10° 04:51:21 10° 32° (NNE) 1,642 9.7 -15.2°
Maximum altitude 04:54:39 37° 101° (E) 744 8.1 -14.4°
Drops below altitude 10° 04:57:54 10° 170° (S) 1,625 9.4 -13.6°
Sets 05:00:01 0° 178° (S) 2,495 10.2 -13.1°
